sat.trackr.live / text

‹ back to catalog

STARLINK-33800

NORAD 63576 · 2025-076H

PAYLOAD ACTIVE UNKNOWN

§ Identity

Operator
Country
US
Launch date
2025-04-14
Launch site
AFETR
Launch vehicle
Mass (kg)
RCS (m²)

Purposes: comms

External: N2YO · Heavens-Above · Gunter

§ Orbital elements

Epoch: 2026-09-20T19:25:45.037056Z

Period
94.27 min
Inclination
43.0028°
Eccentricity
0.0001328
Mean motion
15.27583215 rev/d
Perigee alt
482.1 km
Apogee alt
484.0 km
Semi-major
6,861.2 km
B*
4.2001e-4
RAAN
299.5747°
Arg perigee
267.9605°
Mean anomaly
92.1094°
Rev number
8,167

§ Raw data

STARLINK-338001 63576U 25076H   26263.80954904  .00011314  00000+0  42001-3 0  99942 63576  43.0028 299.5747 0001328 267.9605  92.1094 15.27583215 81674

JSON: /api/v1/satellites/63576 · /tle

For live sub-satellite position, see the globe view (requires WebGL).

§ Visibility from observer

Set your observer location to see the next 7 days of passes ≥ 10°. The values pass through the URL so the page stays shareable.

No JS? Fill the form by hand. The geolocation button needs JavaScript.